This is the latest recevied weather packets stored in our database for station/object OM5AST-13. If no packets are shown the sender has not sent any weather packets the latest 10 day(s).
| Time | Temp. | Humidity | Pressure | Rain* | Wind** | Luminosity | Snow |
|---|---|---|---|---|---|---|---|
| 1788225835 | 20° C | 67% | - | 0 mm | - | 0 W/m² | - |
| 1788224635 | 20.56° C | 65% | - | 0 mm | - | 0 W/m² | - |
| 1788223435 | 20.56° C | 67% | - | 0 mm | - | 0 W/m² | - |
| 1788222235 | 20.56° C | 70% | - | 0 mm | - | 0 W/m² | - |
| 1788221035 | 20.56° C | 72% | - | 0 mm | - | 0 W/m² | - |
| 1788219835 | 21.11° C | 72% | - | 0 mm | - | 0 W/m² | - |
| 1788218635 | 21.67° C | 69% | - | 0 mm | - | 0 W/m² | - |
| 1788217435 | 22.22° C | 63% | - | 0 mm | - | 0 W/m² | - |
| 1788216235 | 21.11° C | 66% | - | 0 mm | - | 0 W/m² | - |
| 1788215035 | 22.22° C | 63% | - | 0 mm | - | 0 W/m² | - |
| 1788213835 | 22.78° C | 58% | - | 0 mm | - | 0 W/m² | - |
| 1788212635 | 24.44° C | 50% | - | 0 mm | - | 0 W/m² | - |
| 1788211435 | 25° C | 45% | - | 0 mm | - | 0 W/m² | - |
| 1788210235 | 25.56° C | 45% | - | 0 mm | - | 0 W/m² | - |
| 1788209035 | 25.56° C | 45% | - | 0 mm | - | 0 W/m² | - |
| 1788207835 | 25.56° C | 46% | - | 0 mm | - | 0 W/m² | - |
| 1788206635 | 25° C | 44% | - | 0 mm | - | 0 W/m² | - |
| 1788205435 | 25.56° C | 44% | - | 0 mm | - | 0 W/m² | - |
| 1788204235 | 25.56° C | 45% | - | 0 mm | - | 0 W/m² | - |
| 1788203035 | 26.11° C | 43% | - | 0 mm | - | 0 W/m² | - |
| 1788201835 | 26.11° C | 42% | - | 0 mm | - | 0 W/m² | - |
| 1788200635 | 26.67° C | 41% | - | 0 mm | - | 0 W/m² | - |
| 1788199435 | 27.22° C | 39% | - | 0 mm | - | 0 W/m² | - |
| 1788198235 | 27.78° C | 38% | - | 0 mm | - | 0 W/m² | - |
| 1788197035 | 27.78° C | 36% | - | 0 mm | - | 0 W/m² | - |
* Rain latest hour (hover to see other rain measurements)
** Current wind speed in m/s (hover to see current wind gust speed)